Terminal Aerodrome Forecast
Issued by NWS Cleveland, OH

Home | Current Version | Previous Version | Graphics & Text | Print | Product List | Glossary On
Versions: 1 2 3 4 5 6 7 8 9 10 11 12 13 14 15 16 17
190
FTUS41 KCLE 220323 AAA
TAFERI
TAF AMD
KERI 220323Z 2203/2224 16010KT P6SM VCSH SCT050 BKN070
      TEMPO 2204/2206 5SM -SHRA BKN025
     FM220800 24006KT P6SM BKN025
     FM221400 25012G20KT P6SM BKN035
     FM221700 25015G22KT P6SM SCT040=

USA.gov is the U.S. government's official web portal to all federal, state and local government web resources and services.